Location: Cisewo
(53.3833°N, 14.9000°E)
Time: 02:16:11
(UTC+00:00)

POLYITAN 1 - Pass Details

Date: 26 September 2021
Orbit: 588 x 611 km, 97.9° (Epoch: 27 October)

Event Time Altitude Azimuth Distance (km) Brightness Sun altitude
Rises 00:01:27 0° 19° (NNE) 2,866 ? -35.9°
Reaches altitude 10° 00:03:46 10° 28° (NNE) 1,953 ? -35.8°
Enters shadow 00:04:51 17° 35° (NE) 1,555 ? -35.7°
